EWG39J ESGG-EDDL

Flight info

Callsign EWG39J
Flight time 1h 19m
Altitude 38000
Route VADIN DCT LAPMA DCT RAXLU DCT ELSOB DCT KEGAB DCT DENOL T851 HALME HALME1A
Aircraft A319/M-SDE3FGHIRWY/LB1

Departure

Time 2026-05-04 17:24
Airport Göteborg Landvetter Airport (ESGG)

Arrival

Time 2026-05-04 18:44
Airport Düsseldorf Airport (EDDL)
Time Latitude Longitude Altitude Speed Heading
2026-05-04 17:06 57.66886 12.29429 516 ft 0 kts 116°
2026-05-04 17:14 57.66894 12.29401 516 ft 4 kts 123°
2026-05-04 17:14 57.66932 12.29333 516 ft 4 kts 161°
2026-05-04 17:15 57.66954 12.29331 516 ft 3 kts 204°
2026-05-04 17:15 57.67002 12.29375 516 ft 4 kts 207°
2026-05-04 17:16 57.67013 12.29385 516 ft 0 kts 205°
2026-05-04 17:18 57.67006 12.29222 516 ft 13 kts 304°
2026-05-04 17:19 57.67198 12.29325 516 ft 17 kts 26°
2026-05-04 17:19 57.67366 12.29479 516 ft 9 kts 26°
2026-05-04 17:20 57.67437 12.29375 516 ft 6 kts 297°
2026-05-04 17:20 57.67441 12.29363 516 ft 0 kts 297°
2026-05-04 17:20 57.67441 12.29362 516 ft 1 kts 297°
2026-05-04 17:21 57.67461 12.29256 515 ft 0 kts 268°
2026-05-04 17:23 57.67461 12.29244 515 ft 5 kts 268°
2026-05-04 17:23 57.67458 12.29078 515 ft 14 kts 261°
2026-05-04 17:23 57.66890 12.28529 513 ft 102 kts 206°
2026-05-04 17:24 57.66079 12.27794 518 ft 154 kts 208°
2026-05-04 17:24 57.63058 12.25014 2235 ft 179 kts 212°
2026-05-04 17:25 57.61860 12.23917 2577 ft 205 kts 211°
2026-05-04 17:25 57.58719 12.22582 3669 ft 256 kts 189°
2026-05-04 17:26 57.55066 12.22265 5597 ft 268 kts 188°
2026-05-04 17:26 57.49375 12.21333 8417 ft 279 kts 193°
2026-05-04 17:27 57.45514 12.20449 8869 ft 277 kts 199°
2026-05-04 17:27 57.42208 12.17350 8893 ft 262 kts 226°
2026-05-04 17:28 57.39665 12.12556 8895 ft 261 kts 230°
2026-05-04 17:29 57.35723 12.05152 10471 ft 290 kts 230°
2026-05-04 17:29 57.31059 11.96412 11682 ft 337 kts 229°
2026-05-04 17:30 57.26572 11.88056 13657 ft 346 kts 230°
2026-05-04 17:31 57.23143 11.81695 14932 ft 353 kts 229°
2026-05-04 17:31 57.17854 11.71914 16816 ft 365 kts 229°
2026-05-04 17:32 57.14094 11.65467 18081 ft 378 kts 219°
2026-05-04 17:33 57.06510 11.60127 19844 ft 395 kts 203°
2026-05-04 17:33 57.03890 11.58611 20466 ft 396 kts 203°
2026-05-04 17:34 56.96020 11.54029 22419 ft 395 kts 203°
2026-05-04 17:34 56.93410 11.52505 23104 ft 393 kts 203°
2026-05-04 17:35 56.85535 11.47921 24683 ft 397 kts 202°
2026-05-04 17:35 56.80238 11.44864 25571 ft 402 kts 202°
2026-05-04 17:35 56.77565 11.43330 26008 ft 404 kts 202°
2026-05-04 17:36 56.74871 11.41785 26444 ft 407 kts 202°
2026-05-04 17:36 56.72169 11.40235 26878 ft 409 kts 202°
2026-05-04 17:36 56.69447 11.38677 27306 ft 411 kts 202°
2026-05-04 17:36 56.66711 11.37117 27738 ft 414 kts 202°
2026-05-04 17:37 56.63949 11.35541 28166 ft 416 kts 202°
2026-05-04 17:37 56.61176 11.33955 28581 ft 419 kts 202°
2026-05-04 17:37 56.58397 11.32332 28998 ft 421 kts 202°
2026-05-04 17:37 56.55602 11.30672 29399 ft 423 kts 202°
2026-05-04 17:38 56.52798 11.28996 29796 ft 426 kts 202°
2026-05-04 17:38 56.49975 11.27315 30139 ft 429 kts 202°
2026-05-04 17:38 56.47133 11.25633 30457 ft 431 kts 202°
2026-05-04 17:38 56.44268 11.23949 30759 ft 434 kts 202°
2026-05-04 17:39 56.38499 11.20575 31368 ft 438 kts 201°
2026-05-04 17:39 56.35591 11.18885 31694 ft 440 kts 201°
2026-05-04 17:39 56.32684 11.17204 32123 ft 439 kts 201°
2026-05-04 17:40 56.29777 11.15524 32551 ft 438 kts 201°
2026-05-04 17:40 56.26883 11.13846 32970 ft 437 kts 201°
2026-05-04 17:40 56.23996 11.12168 33468 ft 435 kts 201°
2026-05-04 17:40 56.21115 11.10497 33931 ft 434 kts 201°
2026-05-04 17:41 56.18243 11.08831 34304 ft 433 kts 201°
2026-05-04 17:41 56.15374 11.07169 34667 ft 433 kts 201°
2026-05-04 17:41 56.12511 11.05518 35024 ft 433 kts 201°
2026-05-04 17:41 56.09645 11.03869 35368 ft 432 kts 201°
2026-05-04 17:42 56.06787 11.02228 35703 ft 432 kts 201°
2026-05-04 17:42 56.03883 11.00562 36034 ft 432 kts 201°
2026-05-04 17:42 56.01062 10.98943 36349 ft 431 kts 201°
2026-05-04 17:42 55.98169 10.97286 36673 ft 431 kts 201°
2026-05-04 17:43 55.95316 10.95657 36984 ft 430 kts 201°
2026-05-04 17:43 55.92463 10.94033 37298 ft 430 kts 201°
2026-05-04 17:43 55.89619 10.92417 37596 ft 429 kts 201°
2026-05-04 17:43 55.86771 10.90803 37875 ft 430 kts 201°
2026-05-04 17:44 55.81076 10.87585 37949 ft 429 kts 201°
2026-05-04 17:44 55.75398 10.84386 37951 ft 429 kts 201°
2026-05-04 17:45 55.69713 10.81172 37954 ft 428 kts 201°
2026-05-04 17:45 55.64028 10.77981 37956 ft 428 kts 201°
2026-05-04 17:46 55.58346 10.74797 37962 ft 428 kts 201°
2026-05-04 17:46 55.52670 10.71627 37964 ft 428 kts 201°
2026-05-04 17:47 55.46985 10.68461 37963 ft 428 kts 201°
2026-05-04 17:47 55.41308 10.65306 37967 ft 428 kts 201°
2026-05-04 17:48 55.35628 10.62163 37968 ft 428 kts 201°
2026-05-04 17:48 55.29956 10.59032 37971 ft 427 kts 201°
2026-05-04 17:49 55.24276 10.55919 37974 ft 427 kts 201°
2026-05-04 17:49 55.18570 10.52801 37971 ft 427 kts 201°
2026-05-04 17:50 55.12901 10.49698 37968 ft 427 kts 201°
2026-05-04 17:50 55.07239 10.46604 37972 ft 426 kts 201°
2026-05-04 17:51 55.01574 10.43519 37972 ft 426 kts 201°
2026-05-04 17:51 54.95907 10.40455 37979 ft 426 kts 201°
2026-05-04 17:52 54.90243 10.37398 37987 ft 426 kts 201°
2026-05-04 17:52 54.84582 10.34342 37985 ft 426 kts 201°
2026-05-04 17:53 54.78920 10.31303 37974 ft 426 kts 201°
2026-05-04 17:53 54.73256 10.28272 37975 ft 426 kts 201°
2026-05-04 17:54 54.67646 10.25012 37981 ft 424 kts 204°
2026-05-04 17:54 54.62144 10.21319 37984 ft 424 kts 204°
2026-05-04 17:55 54.56591 10.17840 37986 ft 425 kts 203°
2026-05-04 17:55 54.51013 10.14452 37990 ft 425 kts 203°
2026-05-04 17:56 54.45406 10.11014 37991 ft 425 kts 203°
2026-05-04 17:56 54.39843 10.07570 37992 ft 425 kts 203°
2026-05-04 17:57 54.34267 10.04121 37993 ft 425 kts 203°
2026-05-04 17:57 54.28698 10.00695 37990 ft 425 kts 203°
2026-05-04 17:58 54.23123 9.97292 37987 ft 425 kts 203°
2026-05-04 17:58 54.17550 9.93896 37990 ft 425 kts 203°
2026-05-04 17:59 54.11982 9.90500 37983 ft 425 kts 203°
2026-05-04 18:00 54.03621 9.85419 37989 ft 425 kts 203°
2026-05-04 18:00 53.98079 9.82068 37986 ft 425 kts 203°
2026-05-04 18:01 53.92512 9.78710 37984 ft 425 kts 203°
2026-05-04 18:01 53.86942 9.75367 37986 ft 425 kts 203°
2026-05-04 18:02 53.78928 9.70561 37978 ft 424 kts 203°
2026-05-04 18:02 53.74266 9.67774 37963 ft 424 kts 203°
2026-05-04 18:03 53.68693 9.64458 37989 ft 424 kts 203°
2026-05-04 18:03 53.63123 9.61154 37998 ft 424 kts 203°
2026-05-04 18:04 53.57549 9.57849 37993 ft 425 kts 203°
2026-05-04 18:05 53.49187 9.52930 37996 ft 425 kts 203°
2026-05-04 18:05 53.43610 9.49648 37987 ft 425 kts 203°
2026-05-04 18:06 53.35244 9.44745 37984 ft 425 kts 202°
2026-05-04 18:06 53.29665 9.41481 37977 ft 424 kts 202°
2026-05-04 18:07 53.24093 9.38224 37982 ft 424 kts 202°
2026-05-04 18:07 53.18525 9.34990 37985 ft 424 kts 202°
2026-05-04 18:08 53.12971 9.31775 37975 ft 417 kts 202°
2026-05-04 18:08 53.07526 9.28639 37971 ft 408 kts 202°
2026-05-04 18:09 52.96826 9.22480 37971 ft 406 kts 202°
2026-05-04 18:10 52.91493 9.19424 37971 ft 405 kts 202°
2026-05-04 18:10 52.86160 9.16376 37970 ft 405 kts 202°
2026-05-04 18:11 52.80837 9.13346 37964 ft 405 kts 202°
2026-05-04 18:11 52.75512 9.10325 37964 ft 404 kts 202°
2026-05-04 18:12 52.70192 9.07301 37955 ft 404 kts 202°
2026-05-04 18:12 52.64868 9.04287 37953 ft 404 kts 202°
2026-05-04 18:13 52.59550 9.01292 37747 ft 403 kts 202°
2026-05-04 18:13 52.54225 8.98291 36632 ft 405 kts 202°
2026-05-04 18:14 52.51557 8.96789 36126 ft 404 kts 202°
2026-05-04 18:14 52.48902 8.95297 35630 ft 402 kts 202°
2026-05-04 18:14 52.46262 8.93812 35135 ft 400 kts 202°
2026-05-04 18:15 52.41023 8.90875 34245 ft 395 kts 203°
2026-05-04 18:15 52.35802 8.87975 33334 ft 388 kts 202°
2026-05-04 18:15 52.33259 8.86566 32807 ft 385 kts 202°
2026-05-04 18:16 52.30720 8.85152 32007 ft 389 kts 202°
2026-05-04 18:16 52.28132 8.83710 31029 ft 397 kts 202°
2026-05-04 18:16 52.25514 8.82255 30372 ft 396 kts 202°
2026-05-04 18:17 52.20323 8.79382 29157 ft 391 kts 202°
2026-05-04 18:17 52.17758 8.77961 28566 ft 388 kts 201°
2026-05-04 18:17 52.12697 8.75099 27410 ft 381 kts 206°
2026-05-04 18:18 52.10490 8.72794 27078 ft 377 kts 223°
2026-05-04 18:18 52.08810 8.69546 26815 ft 377 kts 238°
2026-05-04 18:18 52.07703 8.65694 26435 ft 375 kts 246°
2026-05-04 18:18 52.06719 8.61778 25918 ft 374 kts 246°
2026-05-04 18:19 52.04796 8.53966 24900 ft 371 kts 246°
2026-05-04 18:19 52.03844 8.50087 24401 ft 369 kts 246°
2026-05-04 18:19 52.02909 8.46206 23901 ft 368 kts 247°
2026-05-04 18:20 52.01969 8.42345 23401 ft 367 kts 246°
2026-05-04 18:20 52.01016 8.38520 22846 ft 365 kts 246°
2026-05-04 18:20 52.00053 8.34713 22461 ft 364 kts 246°
2026-05-04 18:20 51.99087 8.30905 22191 ft 365 kts 246°
2026-05-04 18:21 51.98122 8.27100 21927 ft 364 kts 246°
2026-05-04 18:21 51.97162 8.23304 21663 ft 362 kts 246°
2026-05-04 18:21 51.96219 8.19564 21403 ft 354 kts 246°
2026-05-04 18:21 51.95289 8.15871 21144 ft 344 kts 246°
2026-05-04 18:22 51.94401 8.12353 20881 ft 331 kts 246°
2026-05-04 18:22 51.93535 8.08932 20634 ft 324 kts 246°
2026-05-04 18:22 51.92682 8.05568 20379 ft 322 kts 245°
2026-05-04 18:22 51.91830 8.02222 20130 ft 321 kts 245°
2026-05-04 18:23 51.90983 7.98893 19675 ft 319 kts 245°
2026-05-04 18:23 51.90142 7.95591 19216 ft 317 kts 245°
2026-05-04 18:23 51.89300 7.92300 18716 ft 315 kts 245°
2026-05-04 18:23 51.88464 7.89026 18224 ft 315 kts 245°
2026-05-04 18:24 51.87627 7.85749 17776 ft 314 kts 245°
2026-05-04 18:24 51.86795 7.82496 17355 ft 312 kts 246°
2026-05-04 18:24 51.85967 7.79257 16945 ft 311 kts 246°
2026-05-04 18:24 51.85138 7.76031 16539 ft 310 kts 246°
2026-05-04 18:25 51.84309 7.72825 16142 ft 309 kts 246°
2026-05-04 18:25 51.83483 7.69631 15763 ft 307 kts 246°
2026-05-04 18:25 51.82658 7.66450 15394 ft 306 kts 246°
2026-05-04 18:25 51.81836 7.63282 15041 ft 305 kts 246°
2026-05-04 18:26 51.81016 7.60109 14789 ft 305 kts 246°
2026-05-04 18:26 51.80196 7.56954 14545 ft 305 kts 246°
2026-05-04 18:26 51.79376 7.53796 14338 ft 304 kts 246°
2026-05-04 18:26 51.78549 7.50612 14223 ft 304 kts 246°
2026-05-04 18:27 51.77722 7.47466 14098 ft 304 kts 245°
2026-05-04 18:27 51.76899 7.44377 13979 ft 303 kts 245°
2026-05-04 18:27 51.76053 7.41216 13982 ft 303 kts 245°
2026-05-04 18:27 51.75216 7.38087 13981 ft 304 kts 245°
2026-05-04 18:28 51.74380 7.34959 13987 ft 300 kts 245°
2026-05-04 18:28 51.73566 7.31916 13874 ft 291 kts 245°
2026-05-04 18:28 51.72776 7.28965 13754 ft 283 kts 245°
2026-05-04 18:28 51.72006 7.26084 13614 ft 276 kts 245°
2026-05-04 18:29 51.71255 7.23281 13471 ft 269 kts 245°
2026-05-04 18:29 51.70520 7.20536 13235 ft 266 kts 245°
2026-05-04 18:29 51.69692 7.17896 12879 ft 263 kts 236°
2026-05-04 18:29 51.68663 7.15469 12502 ft 262 kts 233°
2026-05-04 18:30 51.66565 7.10716 11764 ft 259 kts 233°
2026-05-04 18:30 51.65516 7.08353 11397 ft 258 kts 233°
2026-05-04 18:30 51.64475 7.06014 10984 ft 256 kts 233°
2026-05-04 18:31 51.63439 7.03691 10530 ft 255 kts 233°
2026-05-04 18:31 51.62407 7.01381 10089 ft 254 kts 233°
2026-05-04 18:31 51.61377 6.99083 9631 ft 252 kts 233°
2026-05-04 18:31 51.60357 6.96802 9161 ft 250 kts 233°
2026-05-04 18:32 51.59347 6.94543 8705 ft 247 kts 233°
2026-05-04 18:32 51.58358 6.92334 8264 ft 245 kts 232°
2026-05-04 18:32 51.57311 6.90751 7861 ft 241 kts 208°
2026-05-04 18:32 51.55723 6.90105 7478 ft 238 kts 176°
2026-05-04 18:33 51.54175 6.90939 7208 ft 238 kts 145°
2026-05-04 18:33 51.53151 6.92987 7022 ft 240 kts 112°
2026-05-04 18:33 51.52930 6.94760 6970 ft 243 kts 90°
2026-05-04 18:33 51.53407 6.98343 6975 ft 248 kts 74°
2026-05-04 18:34 51.53745 7.00095 6980 ft 248 kts 73°
2026-05-04 18:34 51.54268 7.02737 6983 ft 248 kts 73°
2026-05-04 18:34 51.54799 7.05382 6978 ft 248 kts 73°
2026-05-04 18:34 51.55329 7.08002 6714 ft 247 kts 73°
2026-05-04 18:35 51.55864 7.10624 6421 ft 247 kts 73°
2026-05-04 18:35 51.56401 7.13236 6137 ft 246 kts 73°
2026-05-04 18:35 51.56734 7.15904 5876 ft 242 kts 95°
2026-05-04 18:35 51.56219 7.18395 5708 ft 236 kts 127°
2026-05-04 18:36 51.55057 7.20199 5579 ft 232 kts 154°
2026-05-04 18:36 51.53516 7.20737 5450 ft 228 kts 187°
2026-05-04 18:36 51.52000 7.20052 5329 ft 228 kts 202°
2026-05-04 18:36 51.50530 7.19094 5173 ft 228 kts 203°
2026-05-04 18:37 51.49090 7.18064 4901 ft 226 kts 210°
2026-05-04 18:37 51.47959 7.16351 4584 ft 225 kts 232°
2026-05-04 18:37 51.47021 7.14343 4252 ft 225 kts 232°
2026-05-04 18:37 51.46083 7.12329 3961 ft 224 kts 232°
2026-05-04 18:38 51.45156 7.10351 3831 ft 214 kts 232°
2026-05-04 18:38 51.44278 7.08485 3700 ft 205 kts 232°
2026-05-04 18:38 51.43442 7.06706 3577 ft 194 kts 232°
2026-05-04 18:38 51.42651 7.05027 3488 ft 182 kts 232°
2026-05-04 18:39 51.41905 7.03443 3350 ft 177 kts 232°
2026-05-04 18:39 51.41167 7.01879 3224 ft 175 kts 232°
2026-05-04 18:39 51.40436 7.00329 3114 ft 174 kts 231°
2026-05-04 18:39 51.39706 6.98783 3040 ft 174 kts 231°
2026-05-04 18:40 51.38980 6.97244 3006 ft 174 kts 231°
2026-05-04 18:40 51.38248 6.95696 2893 ft 174 kts 231°
2026-05-04 18:40 51.37516 6.94147 2701 ft 174 kts 231°
2026-05-04 18:40 51.36789 6.92609 2479 ft 174 kts 231°
2026-05-04 18:41 51.36059 6.91066 2249 ft 174 kts 232°
2026-05-04 18:41 51.35332 6.89532 2012 ft 172 kts 231°
2026-05-04 18:41 51.34608 6.88004 1779 ft 172 kts 231°
2026-05-04 18:41 51.33893 6.86495 1553 ft 166 kts 231°
2026-05-04 18:42 51.33224 6.85084 1332 ft 153 kts 231°
2026-05-04 18:42 51.32600 6.83770 1128 ft 144 kts 230°
2026-05-04 18:42 51.32009 6.82524 932 ft 138 kts 231°
2026-05-04 18:42 51.31427 6.81300 751 ft 138 kts 231°
2026-05-04 18:43 51.30851 6.80088 571 ft 137 kts 230°
2026-05-04 18:43 51.30279 6.78886 386 ft 135 kts 231°
2026-05-04 18:43 51.29734 6.77742 213 ft 135 kts 230°
2026-05-04 18:43 51.29176 6.76586 134 ft 121 kts 233°
2026-05-04 18:44 51.28775 6.75726 126 ft 73 kts 233°
2026-05-04 18:44 51.28587 6.75326 126 ft 65 kts 233°
2026-05-04 18:44 51.28320 6.74965 121 ft 29 kts 155°
2026-05-04 18:44 51.28166 6.75090 122 ft 19 kts 154°
2026-05-04 18:45 51.28092 6.75149 123 ft 7 kts 153°
2026-05-04 18:45 51.28090 6.75151 123 ft 0 kts 153°